RADSAT-U

Last updated on Sun May 01 2022 00:02:05 GMT+0000 (Coordinated Universal Time)

1 45262U 98067RF 22120.32581621 .08545795 12459-4 65965-3 0 9996 2 45262 51.6190 151.0716 0005980 320.0957 39.9629 16.39441502125036

Satellite not in orbit